Location: Bois Neuf
(42.7667°N, 0.6333°E)
Time: 20:53:31
(UTC+00:00)

Cosmos 1937 Rocket - Visible Passes

Search period start: 25 September 2020 00:00
Search period end: 05 October 2020 00:00
Orbit: 747 x 780 km, 74.0° (Epoch: 25 September)

Date Brightness Start Highest point End Pass type
(mag) Time Alt. Az. Time Alt. Az. Time Alt. Az.
25 Sep 4.2 03:12:15 10° N 03:17:16 50° ENE 03:22:15 10° SE visible
25 Sep 4.7 04:55:10 10° NW 04:58:48 20° W 05:02:25 10° SW visible
25 Sep 6.7 19:35:58 10° WNW 19:37:15 11° NW 19:38:32 10° NW visible
26 Sep 5.2 02:34:08 10° N 02:38:40 30° ENE 02:43:08 10° ESE visible
26 Sep 4.0 04:16:00 10° NW 04:20:37 34° WSW 04:25:13 10° SSW visible
26 Sep 6.3 18:54:53 10° W 18:58:21 18° NW 19:01:50 10° NNW visible
27 Sep 5.9 01:56:21 10° N 01:59:56 19° NE 02:00:00 19° NE visible
27 Sep 4.6 03:37:15 10° NNW 03:47:24 10° S 03:39:50 29° NW visible
27 Sep 5.7 18:15:08 10° WSW 18:19:36 28° WNW 18:24:05 10° N visible
28 Sep 6.5 01:19:24 10° NNE 01:19:26 10° NNE 01:19:26 10° NNE visible
28 Sep 5.8 02:58:46 10° NNW 02:59:27 14° NNW 02:59:27 14° NNW visible
29 Sep 6.4 18:43:12 10° WNW 18:45:18 12° NW 18:47:23 10° NNW visible
30 Sep 6.1 18:02:40 10° WSW 18:06:26 20° NW 18:10:12 10° N visible
